Regional Weather Roundup
Issued by NWS

Home | Current Version | Previous Version | Graphics & Text | Print | Product List | Glossary On
Versions: 1 2 3 4 5 6 7 8 9 10 11 12 13 14 15 16 17 18 19 20 21 22 23 24 25 26 27 28 29 30 31 32 33 34 35 36 37 38 39 40 41 42 43 44 45 46 47 48 49 50
000
ASUS45 KSLC 230810
RWRUT

UTAH REGIONAL WEATHER ROUNDUP
NATIONAL WEATHER SERVICE SALT LAKE CITY UT
200 AM MDT TUE AUG 23 2016

UTZ001>011-023>025-230900-

NORTHERN UTAH

CITY           SKY/WX    TMP DP  RH WIND       PRES   REMARKS
BRIGHAM CITY     N/A     62  30  30 CALM      30.00R
HILL AFB       MOCLDY    70  24  17 E12       30.02R
LOGAN          PTCLDY    54  35  48 CALM      30.02S
OGDEN          PTCLDY    69  24  18 S8        29.99S
PROVO AIRPORT  MOCLDY    66  43  42 SE7       30.05R
SALT LAKE CITY MOCLDY    76  38  25 SE10      29.99R
VERNAL         CLOUDY    57  41  55 W3        30.10S
WENDOVER       PTCLDY    72  25  17 SW3       30.01R
HEBER CITY     MOCLDY    59  34  38 CALM      30.09S
WEST JORDAN    MOCLDY    72  41  31 S14       30.03R

$$

UTZ012>022-026-027-230900-

SOUTHERN/CENTRAL UTAH

CITY           SKY/WX    TMP DP  RH WIND       PRES   REMARKS
BLANDING       MOCLDY    62  46  55 N9        30.23F
BRYCE CANYON   LGT RAIN  53  46  77 W5        30.28S
CEDAR CITY     CLOUDY    60  49  66 S5        30.15F
DELTA          CLOUDY    66  43  42 SE5       30.09R
MILFORD        CLOUDY    64  52  64 S14       30.09F
MOAB/CYNLANDS  CLOUDY    66  53  63 S9        30.05F
PRICE          MOCLDY    63  42  46 E7        30.18S
ST GEORGE      PTSUNNY   72  52  49 SW10      30.04F

$$

REGIONAL REPORTS     COLORADO/ARIZONA

CITY           SKY/WX    TMP DP  RH WIND       PRES   REMARKS
CRAIG, CO      CLOUDY    47  41  80 CALM      30.16R
GRAND JUNCTION PTCLDY    65  48  54 NE3       30.11S
RIFLE          CLOUDY    55  48  77 E7        30.16S
MONTROSE       CLEAR     54  45  71 S7        30.20S
CORTEZ         CLOUDY    57  51  80 S3        30.18F
PAGE, AZ       MOCLDY    71  47  42 CALM      30.06S
GRAND CANYON   LGT RAIN  57  49  74 S3        30.26R
KINGMAN        RAIN      60  59  96 N10       30.16F
FLAGSTAFF      PTCLDY    48  46  93 CALM      30.27S

$$

REGIONAL REPORTS    NEVADA/IDAHO/WYOMING

CITY           SKY/WX    TMP DP  RH WIND       PRES   REMARKS
LAS VEGAS, NV  CLOUDY    73  58  59 NE3       30.01F
ELY            CLOUDY    52  43  71 S9        30.20R
ELKO           MOCLDY    71  29  21 CALM      30.07R
POCATELLO, ID  CLEAR     65  17  15 SW10      30.02R
BURLEY         CLEAR     51  37  58 SW7       29.99S
EVANSTON, WY   CLOUDY    61  20  20 S6        30.19S
ROCK SPRINGS   CLOUDY    57   9  14 SW7       30.13S

$$



USA.gov is the U.S. government's official web portal to all federal, state and local government web resources and services.